Temp
72 75 78 79 79 79 80 79 79 79 79 79 80 79 79 79 79 79 79 79 79 79 80 80 80 80 79 79 78 78 77 77 76 75 75 76 77 77 77 77 76 75 78
74 76 78 79 79 79 80 79 78 78 78 79 79 79 79 79 79 79 79 79 79 79 80 80 80 79 79 78 78 77 77 76 75 74 73 73 74 77 77 77 76 76 78
74 76 77 78 78 78 78 78 77 78 78 78 79 79 79 79 79 79 79 78 78 79 79 79 79 78 78 78 77 77 76 75 74 73 72 71 72 77 77 77 77 77 77
75 76 76 78 78 78 78 78 77 78 78 78 78 78 79 79 79 78 78 78 78 78 78 78 77 77 77 77 77 76 75 74 73 71 68 70 75 78 78 77 77 77 77
75 76 76 77 78 77 77 77 77 77 77 78 78 78 78 78 78 78 78 77 77 77 77 77 76 76 76 76 76 75 75 73 71 68 66 67 71 77 78 77 77 78 77
74 75 76 77 77 77 77 77 77 77 77 77 77 78 78 78 78 77 76 76 75 75 76 76 76 76 76 76 75 75 74 72 68 63 64 69 68 77 76 76 76 76 76
72 75 76 77 77 77 77 77 77 77 77 77 77 77 78 77 77 76 75 75 75 75 76 76 76 76 76 75 75 74 72 69 64 62 63 65 68 76 76 75 75 75 75
73 74 76 75 76 76 76 76 76 76 76 77 77 77 77 76 76 75 75 75 75 76 76 76 75 76 75 75 74 73 71 69 66 63 64 65 73 75 75 75 74 74 74
74 74 74 74 75 74 75 75 76 76 76 76 76 76 75 75 75 75 75 75 75 75 75 75 75 75 75 74 74 72 70 68 63 64 67 65 74 75 75 74 74 74 74
72 73 71 72 73 73 73 74 74 74 74 74 74 73 71 71 72 73 72 73 74 74 74 74 74 75 74 73 72 71 69 68 63 64 64 67 74 75 74 74 73 73 73
71 71 71 71 71 71 72 72 72 72 72 71 70 69 68 67 68 68 69 71 72 73 73 73 74 73 72 71 71 70 68 63 62 63 64 72 74 74 74 73 73 73 72
69 71 71 71 70 71 73 70 70 71 70 69 67 66 65 65 65 68 67 69 71 71 72 73 72 71 67 63 63 66 63 62 62 63 64 72 74 74 73 72 72 72 72
71 71 71 70 70 71 70 68 67 67 68 67 66 66 65 65 64 64 64 65 65 66 65 66 65 63 63 62 62 61 62 61 61 63 66 72 74 74 73 72 72 71 71
70 71 72 70 70 70 69 69 66 66 65 65 66 65 65 64 63 62 62 63 62 62 62 61 61 61 62 62 61 61 61 61 61 62 64 69 73 74 73 72 72 71 71
70 71 71 71 70 69 68 69 68 67 66 65 65 65 65 64 64 63 63 62 62 62 62 61 61 62 62 62 62 62 62 61 61 62 62 65 70 73 73 73 72 72 71
71 71 71 71 71 70 69 68 68 68 67 66 65 65 65 66 65 64 63 63 63 63 63 63 62 63 62 62 62 62 62 61 61 62 61 62 67 70 73 74 73 73 72
71 71 70 71 71 70 69 68 69 69 69 67 66 67 67 66 66 65 64 63 63 63 64 63 63 62 61 62 61 62 62 61 61 61 61 61 63 65 69 73 74 73 73
69 70 71 72 70 70 70 69 68 69 69 68 68 67 67 67 66 64 64 63 64 64 63 63 62 61 60 60 60 61 61 61 61 61 62 62 62 64 65 69 71 73 73
70 69 69 70 70 70 70 69 68 68 69 69 68 67 67 67 66 65 64 64 64 63 62 62 61 61 60 60 61 60 60 60 61 64 61 62 62 62 62 65 66 67 69
68 69 70 70 70 70 68 67 66 66 67 67 68 68 67 67 66 65 64 64 64 62 61 61 61 60 60 60 63 63 61 61 61 60 61 64 63 63 62 64 61 62 64
65 67 69 67 69 69 67 66 65 65 64 65 66 68 69 69 68 66 65 64 63 63 62 62 61 61 60 60 60 61 61 62 60 60 60 61 62 63 64 65 63 61 60
66 66 66 67 67 68 68 68 66 66 65 66 66 67 68 68 67 66 65 64 63 63 63 62 62 61 63 61 60 57 55 58 59 58 59 60 58 60 61 61 58 59 58
63 64 66 66 67 68 67 65 65 65 64 64 65 65 67 68 68 68 67 65 64 63 62 62 63 63 61 60 61 60 54 54 55 56 56 56 56 56 57 56 57 57 56
62 64 65 65 67 66 66 65 65 66 64 64 64 65 65 67 67 67 66 65 65 64 63 63 64 62 61 60 60 61 60 59 56 55 56 56 56 56 55 56 55 55 54
61 62 63 64 64 63 65 65 63 62 63 63 63 64 64 64 65 66 65 64 64 64 64 64 63 63 62 61 60 59 59 59 59 57 54 54 54 53 54 54 53 52 52
58 59 61 62 63 63 64 63 63 61 61 61 61 61 61 63 64 64 64 64 64 64 63 63 64 63 63 62 61 61 59 58 57 57 56 55 54 51 51 51 51 50 48
MSLP
1011.65 1011.90 1012.39 1012.73 1013.17 1013.62 1013.99 1014.16 1014.41 1014.53 1014.66 1014.77 1014.97 1015.27 1015.56 1015.85 1016.28 1016.56 1016.78 1017.02 1017.33 1017.47 1017.57 1017.64 1017.73 1017.95 1018.17 1018.32 1018.48 1018.53 1018.65 1018.68 1018.72 1018.71 1018.61 1018.61 1018.60 1018.57 1018.50 1018.43 1018.34 1018.26 1018.17
1011.25 1011.79 1012.45 1012.77 1013.22 1013.71 1014.11 1014.37 1014.67 1014.77 1014.91 1015.00 1015.22 1015.44 1015.81 1016.13 1016.45 1016.82 1017.07 1017.37 1017.69 1017.82 1017.97 1018.08 1018.22 1018.38 1018.52 1018.65 1018.81 1018.99 1019.07 1019.09 1019.12 1019.04 1019.02 1019.05 1019.00 1018.97 1019.00 1018.89 1018.70 1018.72 1018.69
1011.31 1011.80 1012.52 1012.96 1013.36 1013.90 1014.40 1014.69 1014.91 1015.00 1015.08 1015.40 1015.53 1015.73 1016.13 1016.42 1016.77 1017.14 1017.45 1017.71 1017.94 1018.21 1018.32 1018.48 1018.67 1018.75 1018.89 1019.00 1019.12 1019.36 1019.54 1019.59 1019.59 1019.50 1019.44 1019.45 1019.33 1019.20 1019.29 1019.24 1019.14 1019.16 1019.20
1011.19 1011.87 1012.58 1013.10 1013.58 1014.09 1014.64 1014.94 1015.13 1015.25 1015.29 1015.55 1015.94 1016.14 1016.41 1016.80 1017.14 1017.49 1017.79 1018.06 1018.33 1018.54 1018.71 1018.83 1019.01 1019.16 1019.26 1019.33 1019.50 1019.72 1019.94 1020.04 1020.03 1020.01 1020.02 1019.89 1019.69 1019.61 1019.65 1019.62 1019.62 1019.62 1019.74
1011.40 1012.02 1012.79 1013.24 1013.76 1014.44 1014.72 1015.13 1015.31 1015.48 1015.63 1015.80 1016.13 1016.40 1017.02 1017.28 1017.58 1017.82 1018.14 1018.41 1018.72 1018.90 1019.05 1019.18 1019.37 1019.48 1019.60 1019.68 1019.89 1020.05 1020.27 1020.40 1020.45 1020.55 1020.62 1020.50 1020.32 1020.17 1020.21 1020.12 1020.13 1020.08 1020.14
1011.56 1012.14 1012.92 1013.32 1013.79 1014.73 1014.91 1015.23 1015.48 1015.77 1016.00 1016.13 1016.41 1016.85 1017.29 1017.63 1017.94 1018.22 1018.52 1018.82 1019.06 1019.22 1019.33 1019.55 1019.68 1019.81 1019.91 1020.07 1020.28 1020.40 1020.59 1020.74 1020.88 1021.05 1021.14 1020.88 1020.80 1020.60 1020.72 1020.69 1020.67 1020.71 1020.69
1011.87 1012.39 1013.07 1013.47 1013.97 1014.67 1015.16 1015.46 1015.69 1016.06 1016.40 1016.65 1016.82 1017.14 1017.51 1017.96 1018.31 1018.67 1018.89 1019.10 1019.26 1019.42 1019.64 1019.90 1020.09 1020.21 1020.28 1020.43 1020.58 1020.74 1020.93 1021.11 1021.30 1021.45 1021.51 1021.33 1021.14 1021.03 1021.08 1021.05 1021.05 1021.14 1021.21
1011.95 1012.49 1013.14 1013.68 1014.21 1014.77 1015.08 1015.79 1015.93 1016.29 1016.75 1016.97 1017.21 1017.43 1017.80 1018.25 1018.59 1018.95 1019.15 1019.29 1019.52 1019.70 1019.92 1020.13 1020.36 1020.49 1020.60 1020.73 1020.93 1021.06 1021.23 1021.36 1021.63 1021.70 1021.69 1021.59 1021.38 1021.37 1021.40 1021.42 1021.44 1021.49 1021.55
1012.23 1012.94 1013.37 1013.95 1014.51 1014.97 1015.28 1015.84 1016.05 1016.41 1016.99 1017.17 1017.49 1017.70 1018.07 1018.47 1018.68 1018.98 1019.26 1019.47 1019.74 1019.99 1020.23 1020.40 1020.60 1020.76 1020.89 1020.97 1021.20 1021.36 1021.60 1021.64 1021.84 1021.98 1021.82 1021.88 1021.70 1021.69 1021.77 1021.86 1021.84 1021.89 1021.94
1012.78 1013.34 1013.81 1014.22 1014.71 1015.20 1015.60 1015.94 1016.14 1016.59 1017.13 1017.40 1017.73 1018.03 1018.41 1018.76 1018.88 1019.19 1019.44 1019.66 1019.96 1020.23 1020.54 1020.70 1020.83 1020.96 1021.21 1021.28 1021.43 1021.58 1021.69 1021.93 1021.97 1022.11 1022.12 1022.02 1021.95 1021.98 1022.07 1022.12 1022.16 1022.25 1022.32
1013.36 1013.90 1014.02 1014.46 1014.90 1015.36 1015.77 1016.08 1016.36 1016.81 1017.33 1017.64 1018.05 1018.43 1018.76 1019.11 1019.31 1019.61 1019.81 1019.96 1020.18 1020.44 1020.68 1020.84 1021.02 1021.20 1021.46 1021.67 1021.69 1021.82 1021.92 1022.17 1022.28 1022.29 1022.30 1022.14 1022.22 1022.27 1022.42 1022.50 1022.50 1022.56 1022.65
1013.40 1014.09 1014.42 1014.68 1015.04 1015.44 1015.77 1016.22 1016.64 1016.96 1017.48 1017.87 1018.31 1018.71 1019.09 1019.44 1019.69 1019.92 1020.21 1020.37 1020.55 1020.79 1021.00 1021.23 1021.31 1021.46 1021.72 1022.03 1022.24 1022.22 1022.39 1022.46 1022.60 1022.61 1022.51 1022.38 1022.46 1022.53 1022.69 1022.77 1022.80 1022.90 1023.01
1013.64 1014.01 1014.66 1015.11 1015.30 1015.49 1015.82 1016.34 1016.88 1017.14 1017.50 1018.01 1018.39 1018.83 1019.26 1019.66 1019.93 1020.14 1020.46 1020.69 1020.98 1021.18 1021.43 1021.63 1021.76 1021.96 1022.02 1022.17 1022.32 1022.45 1022.49 1022.70 1022.77 1022.83 1022.69 1022.58 1022.60 1022.70 1022.87 1022.98 1023.06 1023.16 1023.22
1013.42 1014.00 1014.70 1015.17 1015.44 1015.49 1015.87 1016.24 1016.92 1017.16 1017.65 1018.09 1018.44 1018.77 1019.28 1019.82 1020.15 1020.40 1020.61 1020.87 1021.16 1021.40 1021.66 1021.84 1022.04 1022.05 1022.12 1022.21 1022.37 1022.48 1022.53 1022.66 1022.80 1022.85 1022.85 1022.74 1022.75 1022.82 1022.98 1023.08 1023.19 1023.25 1023.35
1012.61 1013.62 1014.22 1014.85 1015.33 1015.51 1015.85 1016.29 1016.77 1017.14 1017.66 1018.03 1018.46 1018.83 1019.16 1019.63 1020.05 1020.45 1020.74 1021.02 1021.21 1021.41 1021.58 1021.83 1022.00 1022.12 1022.19 1022.21 1022.29 1022.44 1022.56 1022.65 1022.72 1022.86 1022.93 1022.85 1022.87 1022.88 1022.98 1023.11 1023.27 1023.36 1023.41
1011.58 1013.04 1013.87 1014.42 1014.69 1015.28 1015.73 1016.09 1016.48 1016.93 1017.48 1017.92 1018.30 1018.76 1019.22 1019.52 1019.86 1020.29 1020.68 1020.96 1021.25 1021.46 1021.61 1021.76 1021.95 1022.12 1022.26 1022.36 1022.39 1022.40 1022.51 1022.62 1022.66 1022.79 1022.92 1022.97 1022.97 1023.01 1022.95 1022.91 1023.05 1023.27 1023.44
1011.05 1012.26 1013.31 1013.96 1014.22 1015.08 1015.42 1015.69 1016.06 1016.52 1017.14 1017.69 1018.00 1018.40 1018.93 1019.32 1019.68 1020.08 1020.51 1020.87 1021.00 1021.27 1021.63 1021.94 1022.10 1022.17 1022.29 1022.33 1022.46 1022.49 1022.47 1022.47 1022.51 1022.59 1022.67 1022.75 1022.79 1022.90 1023.00 1022.96 1022.84 1023.05 1023.20
1011.00 1011.91 1012.96 1013.72 1014.27 1014.55 1015.10 1015.40 1015.92 1016.23 1016.79 1017.21 1017.68 1018.19 1018.63 1019.08 1019.43 1019.88 1020.34 1020.57 1020.69 1021.14 1021.47 1021.80 1022.08 1022.34 1022.41 1022.45 1022.54 1022.52 1022.48 1022.47 1022.49 1022.46 1022.48 1022.54 1022.67 1022.67 1022.66 1022.80 1022.82 1022.84 1022.97
1010.88 1011.65 1012.46 1013.31 1013.74 1014.15 1014.69 1015.09 1015.65 1015.97 1016.36 1016.72 1017.29 1017.82 1018.32 1018.83 1019.27 1019.73 1020.04 1020.26 1020.51 1020.93 1021.28 1021.47 1021.92 1022.24 1022.48 1022.58 1022.55 1022.47 1022.43 1022.46 1022.37 1022.29 1022.44 1022.47 1022.43 1022.49 1022.63 1022.54 1022.69 1022.77 1022.82
1011.29 1011.36 1011.82 1012.92 1013.40 1013.98 1014.76 1015.27 1015.83 1016.08 1016.30 1016.70 1016.99 1017.40 1017.76 1018.21 1018.78 1019.44 1019.85 1020.14 1020.44 1020.89 1021.29 1021.63 1021.80 1021.96 1022.23 1022.32 1022.37 1022.35 1022.22 1022.09 1022.24 1022.41 1022.36 1022.26 1022.29 1022.23 1022.26 1022.44 1022.57 1022.74 1022.92
1011.65 1011.41 1011.69 1012.65 1013.16 1013.91 1014.57 1015.17 1015.78 1016.11 1016.38 1016.73 1016.99 1017.26 1017.55 1017.80 1018.20 1018.86 1019.36 1019.77 1020.21 1020.72 1020.89 1021.22 1021.57 1021.81 1022.04 1022.14 1022.40 1022.35 1022.03 1021.80 1021.99 1022.30 1022.32 1022.36 1022.26 1022.16 1022.13 1022.27 1022.50 1022.71 1023.11
1011.55 1011.52 1011.89 1012.13 1012.76 1013.47 1014.26 1014.88 1015.36 1015.73 1016.25 1016.37 1016.95 1017.42 1017.33 1017.84 1017.92 1018.34 1018.92 1019.51 1019.90 1020.36 1020.75 1021.06 1021.20 1021.32 1021.33 1021.95 1022.35 1022.57 1022.57 1022.13 1022.12 1022.30 1022.29 1022.28 1022.47 1022.42 1022.62 1022.65 1022.92 1023.27 1023.35
1011.60 1011.64 1011.74 1012.04 1012.45 1013.24 1014.07 1014.88 1015.22 1015.94 1016.50 1016.50 1016.93 1017.03 1017.26 1017.50 1017.76 1018.02 1018.47 1018.94 1019.45 1019.99 1020.41 1020.82 1021.17 1021.46 1020.97 1021.85 1022.06 1022.42 1022.91 1022.78 1022.51 1022.62 1022.90 1023.01 1022.83 1022.68 1022.98 1023.20 1023.29 1023.23 1023.87
1010.98 1011.28 1011.48 1011.90 1012.42 1013.11 1013.63 1014.24 1014.89 1015.29 1015.85 1015.68 1016.64 1016.87 1017.37 1017.33 1017.50 1017.82 1018.28 1018.76 1019.17 1019.33 1019.83 1020.00 1020.79 1021.31 1021.26 1021.48 1021.95 1022.13 1022.32 1022.44 1022.48 1022.96 1022.91 1022.94 1023.59 1023.17 1023.40 1023.20 1023.64 1023.74 1023.74
1011.07 1011.32 1011.62 1011.94 1012.45 1013.07 1013.72 1013.98 1014.70 1015.11 1015.76 1016.31 1016.55 1017.12 1017.61 1017.40 1017.68 1017.90 1018.25 1019.09 1019.29 1019.41 1019.70 1020.00 1020.46 1020.41 1021.14 1021.68 1021.62 1021.74 1022.00 1022.16 1022.40 1022.75 1022.85 1022.97 1023.52 1023.53 1022.97 1023.57 1023.75 1023.65 1023.95
1011.48 1011.69 1011.94 1012.29 1012.60 1012.94 1013.49 1014.05 1014.43 1015.05 1015.75 1016.31 1016.78 1017.36 1017.39 1017.42 1017.50 1017.78 1018.07 1018.72 1018.91 1018.97 1019.26 1019.68 1020.05 1019.87 1020.21 1020.68 1021.26 1021.47 1021.61 1021.78 1022.05 1022.25 1022.48 1022.49 1022.89 1023.17 1023.42 1023.78 1023.98 1024.14 1024.10
Wind_Speed
12 13 20 21 20 18 17 16 15 15 14 17 19 20 20 20 21 20 20 19 18 16 18 18 19 20 19 20 20 20 19 17 16 14 13 14 15 16 17 16 13 10 20
14 15 21 20 20 19 17 16 15 13 15 17 20 21 22 22 22 20 20 19 18 18 18 18 20 19 18 17 18 18 17 17 16 14 12 10 13 16 16 15 15 15 19
16 16 17 20 20 18 16 17 16 15 16 17 20 22 22 22 21 20 19 19 19 19 19 18 18 18 16 15 15 16 15 15 15 14 13 5 7 15 16 14 14 17 18
16 15 15 21 20 19 18 18 17 16 16 18 19 20 21 20 20 19 19 19 19 19 18 18 17 16 16 17 17 16 15 15 15 14 6 6 8 16 16 16 17 17 17
16 15 15 21 21 19 19 17 17 16 17 17 17 19 19 19 20 20 19 19 17 16 17 17 16 16 14 16 16 15 15 15 15 10 7 7 6 12 13 14 12 14 15
15 15 18 20 22 19 18 17 18 18 18 18 17 18 18 19 19 19 19 17 15 15 16 16 16 15 14 16 16 16 15 15 12 7 6 8 6 13 13 13 13 12 13
14 15 15 20 21 21 18 18 18 18 19 19 18 19 19 19 19 18 17 16 15 15 15 15 15 15 14 15 15 15 14 13 6 6 5 5 6 14 14 13 13 13 13
14 15 15 18 21 20 21 18 18 19 18 18 17 19 19 19 18 17 16 15 15 15 15 14 13 14 13 13 14 14 13 10 6 6 5 4 10 13 13 13 12 13 13
13 12 12 12 16 18 20 19 19 20 18 17 17 18 18 17 16 15 16 15 15 14 13 12 11 12 13 14 13 12 11 10 6 3 4 3 9 12 12 12 11 12 12
10 12 9 10 12 11 11 16 16 19 18 18 17 15 13 12 13 13 11 13 13 12 10 9 9 10 11 12 11 10 10 8 5 4 3 3 10 11 11 11 11 11 11
8 8 8 10 10 10 9 10 12 16 15 15 13 12 10 4 6 7 7 10 11 10 10 9 8 6 8 8 7 7 7 3 3 2 2 7 8 9 9 9 10 10 9
14 12 8 11 11 10 9 9 7 10 8 8 7 7 5 5 5 6 6 8 8 7 6 6 5 5 5 3 3 5 1 3 2 1 1 6 7 8 8 8 8 8 8
13 10 10 9 10 10 7 6 4 5 6 6 8 6 5 4 4 3 3 3 3 5 2 2 3 2 2 2 2 2 2 3 2 1 2 5 6 6 6 6 7 7 7
19 16 13 10 10 8 7 7 5 6 5 5 6 7 6 3 4 3 3 4 4 3 3 2 1 1 1 2 2 2 2 3 2 2 3 6 5 5 5 5 5 5 6
21 16 17 14 11 9 9 6 6 6 6 5 5 5 5 5 5 4 3 3 3 3 3 3 3 2 2 3 2 2 2 4 5 3 2 6 6 6 6 5 5 5 5
23 18 16 16 14 11 10 10 7 7 6 6 6 6 6 5 5 4 4 4 3 3 3 3 3 3 2 2 3 3 3 3 3 5 3 3 6 7 7 8 8 7 6
17 18 16 16 15 14 11 10 8 8 7 6 7 8 9 7 6 6 4 4 4 4 3 2 2 1 2 2 4 4 3 3 3 4 4 4 4 6 8 9 9 8 9
17 19 17 15 16 16 12 9 6 7 7 6 6 6 9 7 7 6 5 4 4 4 4 3 2 2 2 2 2 3 3 3 4 5 4 4 4 4 5 9 9 8 8
15 18 19 17 17 15 12 9 8 8 7 6 6 6 8 8 7 6 5 4 5 4 3 3 3 3 2 3 4 3 3 4 4 2 4 5 5 4 3 5 7 7 7
12 15 17 13 16 14 8 5 3 3 4 4 6 6 9 7 7 6 4 5 4 3 3 2 3 2 2 3 2 3 3 3 3 3 4 3 4 5 5 5 3 2 3
5 10 13 13 12 9 8 8 5 6 3 3 4 6 8 8 10 8 5 5 5 5 5 5 3 5 3 2 1 2 3 4 4 3 3 3 3 3 4 2 2 3 3
12 10 10 12 12 10 7 6 3 4 2 5 4 5 6 5 6 6 6 5 5 4 5 6 5 3 3 3 2 1 3 3 3 4 3 1 3 3 4 4 5 5 4
10 10 9 10 12 10 9 6 4 5 2 3 2 3 5 7 6 7 7 6 6 4 4 1 2 3 3 1 1 2 1 3 2 3 4 3 2 4 3 4 4 6 4
8 6 6 8 10 8 10 7 8 7 4 4 4 2 2 5 5 5 4 4 3 3 3 5 2 3 2 3 2 4 3 2 2 2 1 3 2 3 2 3 2 3 4
6 7 5 6 6 6 8 8 5 4 3 3 2 7 4 4 4 5 4 4 4 3 4 4 4 7 1 1 3 2 3 3 2 3 3 3 1 3 3 3 2 3 1
2 5 6 7 5 7 7 6 7 8 6 5 4 4 4 1 3 3 3 3 3 3 5 6 7 8 8 6 3 3 3 3 3 3 4 4 4 2 2 2 2 1 1
Wind_Direction
157 152 153 143 134 133 132 123 120 115 111 124 126 121 118 115 115 113 109 104 109 108 108 108 103 99 102 92 84 82 86 85 77 68 68 83 81 75 67 64 67 67 73
140 147 150 142 135 138 137 124 124 118 111 124 127 126 122 121 118 115 113 109 110 112 111 112 108 103 98 94 90 88 87 78 75 61 51 78 85 78 73 65 70 77 75
140 144 145 141 135 133 131 131 131 124 117 118 123 122 123 119 114 115 113 114 114 114 114 111 109 100 94 96 103 93 89 82 71 57 46 52 92 88 85 81 78 75 72
139 140 143 141 134 133 136 135 134 130 119 114 117 117 112 114 117 117 116 116 116 117 117 114 107 96 95 99 98 95 87 83 75 60 40 32 55 67 70 69 67 66 69
138 137 144 139 134 138 137 137 135 129 123 118 113 109 118 122 120 118 118 118 118 117 119 114 103 93 98 107 101 98 91 83 74 61 50 42 35 72 70 64 55 57 54
136 138 146 143 137 138 138 136 131 128 127 120 118 121 122 124 122 121 122 120 121 122 121 114 101 92 105 106 102 100 96 88 76 63 55 63 57 77 77 71 63 63 60
137 141 142 143 137 141 140 136 131 130 132 131 129 127 126 126 126 126 128 127 125 126 125 115 104 94 99 107 105 104 101 91 82 73 62 60 71 80 79 76 75 73 72
135 139 146 141 139 146 141 142 138 133 135 135 135 130 130 130 131 133 133 133 131 132 129 120 113 105 105 115 111 110 108 99 85 83 73 64 84 85 83 81 81 79 79
132 139 144 145 144 147 144 148 144 138 138 136 134 134 133 134 137 130 134 128 132 132 131 128 122 112 109 116 120 114 107 106 103 100 91 72 93 90 88 86 84 83 81
130 145 141 143 143 146 147 150 148 140 139 138 136 131 128 133 133 127 123 129 130 130 133 132 126 118 114 112 117 125 123 113 115 112 100 106 100 97 94 93 90 87 84
142 149 140 140 141 144 146 147 140 137 137 133 131 131 123 121 118 115 124 123 129 139 145 141 132 115 110 101 103 124 127 122 124 129 130 119 109 102 98 95 93 92 90
159 165 154 146 147 151 154 144 137 141 140 137 137 139 128 126 126 127 132 132 132 135 139 146 133 117 82 86 69 85 111 140 133 164 180 136 122 112 108 104 99 96 92
173 161 158 152 155 157 140 136 137 138 145 144 144 140 132 131 129 126 126 124 123 127 100 83 68 41 73 76 85 59 125 182 173 209 227 170 146 130 124 117 110 105 100
182 171 162 163 161 148 145 148 149 145 145 150 152 140 139 135 135 145 146 155 154 154 154 146 167 233 293 320 299 187 177 183 193 203 238 203 187 161 152 139 135 130 121
166 171 167 163 169 156 156 154 156 149 156 153 148 153 146 150 158 150 161 162 172 162 170 178 190 211 260 282 283 263 193 201 195 202 217 229 222 199 184 177 171 167 160
157 171 171 170 164 166 166 165 166 160 160 159 159 169 165 164 161 162 166 179 187 190 190 184 190 204 250 288 282 253 221 207 205 202 211 234 239 230 222 208 201 202 197
163 165 169 174 169 170 173 170 169 169 161 167 174 174 177 175 174 171 170 186 198 189 194 210 235 256 260 235 264 265 247 213 215 211 211 212 229 237 239 243 238 221 216
162 169 171 178 178 173 179 172 172 170 166 172 172 176 183 183 173 167 175 199 192 177 176 184 200 255 254 230 275 264 285 267 235 228 220 212 217 223 232 244 261 256 239
169 172 176 178 179 178 175 170 175 176 175 173 163 172 182 178 171 175 186 201 181 186 197 187 190 180 194 229 240 254 267 276 266 246 230 235 231 226 234 235 245 262 278
188 177 170 176 175 173 167 135 128 165 166 153 172 178 169 172 172 179 188 196 179 169 196 180 180 183 198 221 258 275 261 248 252 256 260 254 245 232 216 220 225 234 352
192 176 171 176 175 164 164 164 157 165 149 148 161 178 175 178 170 169 178 170 164 178 193 187 176 189 214 165 65 315 283 246 250 274 278 280 285 271 222 176 151 107 63
186 187 177 168 160 171 175 174 150 143 166 150 170 211 171 188 168 167 162 164 175 169 194 195 192 174 163 180 147 114 316 337 48 23 345 343 37 43 44 72 76 39 74
186 181 168 172 167 168 153 137 109 95 72 66 164 171 190 185 175 166 166 178 181 178 187 197 236 257 129 90 184 166 140 245 1 7 20 6 80 104 91 69 73 95 74
190 164 166 177 166 154 159 155 164 183 189 151 200 124 129 127 132 148 168 153 176 167 180 152 163 220 145 189 206 226 230 215 202 313 58 64 2 103 78 93 72 79 90
164 176 168 155 176 148 167 173 160 124 132 115 135 139 160 138 159 144 146 243 223 183 185 177 219 211 236 249 207 173 210 208 223 215 254 175 238 232 135 150 177 125 98
135 156 151 170 152 148 146 167 163 155 153 132 131 161 201 186 164 185 191 206 227 231 196 207 205 179 193 176 195 231 198 185 189 199 238 223 214 179 137 154 176 77 124